TimeMDT,TemperatureF,Dew PointF,Humidity,Sea Level PressureIn,VisibilityMPH,Wind Direction,Wind SpeedMPH,Gust SpeedMPH,PrecipitationIn,Events,Conditions,WindDirDegrees,DateUTC
12:53 AM,62.1,43.0,50,29.88,10.0,SSW,8.1,-,N/A,,Clear,210,2013-06-12 06:53:00
1:53 AM,62.1,43.0,50,29.87,10.0,Calm,Calm,-,N/A,,Clear,0,2013-06-12 07:53:00
2:53 AM,57.9,46.0,65,29.88,10.0,Calm,Calm,-,N/A,,Clear,0,2013-06-12 08:53:00
3:53 AM,57.0,46.9,69,29.88,10.0,North,3.5,-,N/A,,Mostly Cloudy,360,2013-06-12 09:53:00
4:53 AM,55.0,46.0,72,29.88,10.0,Calm,Calm,-,N/A,,Partly Cloudy,0,2013-06-12 10:53:00
5:53 AM,55.9,46.9,72,29.89,10.0,Calm,Calm,-,N/A,,Mostly Cloudy,0,2013-06-12 11:53:00
6:53 AM,55.0,46.9,74,29.90,10.0,NNE,3.5,-,N/A,,Overcast,20,2013-06-12 12:53:00
7:53 AM,57.9,48.9,72,29.91,10.0,North,6.9,-,0.00,Rain,Light Rain,10,2013-06-12 13:53:00
8:53 AM,66.9,46.9,49,29.92,10.0,Variable,3.5,-,0.00,,Mostly Cloudy,0,2013-06-12 14:53:00
9:53 AM,70.0,45.0,41,29.92,10.0,South,11.5,21.9,N/A,,Scattered Clouds,190,2013-06-12 15:53:00
10:53 AM,70.0,46.0,42,29.92,10.0,South,9.2,17.3,0.00,Rain,Light Rain,170,2013-06-12 16:53:00
11:53 AM,70.0,50.0,49,29.96,10.0,WNW,9.2,-,0.03,,Mostly Cloudy,290,2013-06-12 17:53:00
12:44 PM,66.2,48.2,52,30.10,10.0,NW,4.6,-,N/A,Thunderstorm,Overcast,320,2013-06-12 18:44:00
12:53 PM,64.9,50.0,58,30.04,8.0,West,15.0,-,0.01,Rain-Thunderstorm,Light Rain,260,2013-06-12 18:53:00
12:58 PM,62.6,51.8,68,30.13,2.0,West,3.5,16.1,0.04,Rain,Heavy Rain,270,2013-06-12 18:58:00
1:13 PM,60.8,51.8,72,30.11,6.0,WNW,3.5,-,0.06,Rain,Light Rain,290,2013-06-12 19:13:00
1:20 PM,60.8,51.8,72,30.11,10.0,Calm,Calm,-,0.06,Rain-Thunderstorm,Light Rain,0,2013-06-12 19:20:00
1:41 PM,64.4,51.8,64,30.12,10.0,SSW,5.8,-,0.06,,Mostly Cloudy,210,2013-06-12 19:41:00
1:53 PM,64.0,51.1,63,30.00,10.0,East,3.5,-,0.06,,Mostly Cloudy,80,2013-06-12 19:53:00
2:53 PM,63.0,48.9,60,30.01,10.0,ESE,10.4,-,N/A,,Mostly Cloudy,110,2013-06-12 20:53:00
3:53 PM,63.0,48.9,60,29.98,10.0,SE,10.4,17.3,0.00,Rain,Light Rain,140,2013-06-12 21:53:00
4:53 PM,62.1,48.9,62,29.98,8.0,Variable,4.6,16.1,0.01,Rain,Light Rain,0,2013-06-12 22:53:00
5:53 PM,62.1,51.1,67,29.97,10.0,ENE,4.6,-,0.01,,Overcast,60,2013-06-12 23:53:00
6:03 PM,62.6,50.0,63,30.05,10.0,East,3.5,-,N/A,Thunderstorm,Overcast,80,2013-06-13 00:03:00
6:28 PM,62.6,53.6,72,30.03,10.0,NNE,5.8,-,0.01,Rain,Light Rain,30,2013-06-13 00:28:00
6:53 PM,61.0,53.1,75,30.00,10.0,SE,8.1,-,0.01,Thunderstorm,Mostly Cloudy,140,2013-06-13 00:53:00
7:02 PM,60.8,51.8,72,30.07,10.0,ESE,4.6,-,0.00,Rain,Light Rain,120,2013-06-13 01:02:00
7:53 PM,60.1,53.1,78,29.98,10.0,NNE,5.8,-,0.00,,Overcast,30,2013-06-13 01:53:00
8:53 PM,57.9,53.1,84,29.95,10.0,ENE,4.6,-,N/A,,Clear,70,2013-06-13 02:53:00
9:53 PM,57.0,51.1,81,29.90,10.0,ENE,11.5,-,N/A,,Partly Cloudy,60,2013-06-13 03:53:00
10:53 PM,55.9,50.0,80,29.89,10.0,ENE,10.4,-,N/A,,Clear,60,2013-06-13 04:53:00
11:53 PM,54.0,48.9,83,29.93,10.0,ENE,5.8,-,N/A,,Scattered Clouds,60,2013-06-13 05:53:00